180  
ASUS43 KFGF 161510  
RWRFGF  
PRAIRIE TO PINES WEATHER ROUNDUP  
NATIONAL WEATHER SERVICE EASTERN NORTH DAKOTA/GRAND FORKS ND  
1000 AM CDT WED AUG 16 2017  
 
**SATELLITE DATA USED TO AUGMENT SKY COVER AT AUTOMATED STATIONS**  
***** WEATHER ACROSS EASTERN NORTH DAKOTA *****  
 
CITY SKY/WX TMP DP RH WIND PRES REMARKS
 
GRAND FORKS LGT RAIN 64 64 100 E8 29.85S FOG  
GRAND FRKS AFB LGT RAIN 63 63 100 E5 29.86S  
DEVILS LAKE CLOUDY 64 62 93 NE9 29.89S  
FARGO CLOUDY 66 65 96 SE3 29.84S  
WAHPETON ARPT CLOUDY 64 63 94 S6 29.84S  

 
 
***** WEATHER ACROSS CENTRAL AND WESTERN NORTH DAKOTA *****  
 
CITY SKY/WX TMP DP RH WIND PRES REMARKS
 
BISMARCK CLOUDY 64 59 83 N12 29.94R  
MINOT FOG 59 58 96 NW7 29.93R VSB 1/4  
JAMESTOWN CLOUDY 65 63 93 N6 29.85R FOG  
MINOT AFB FOG 58 58 100 NW5 29.92S VSB 1/4  
GARRISON N/A 59 59 100 N6 29.94R  
WILLISTON FOG 60 58 92 CALM 29.96S VSB 1/4  
DICKINSON FAIR 65 62 90 NW5 29.97R  
HETTINGER FAIR 66 61 84 NW10 29.99R  

 
 
***** OTHER AIRPORT OBSERVATIONS IN OUR AREA *****  
 
CITY SKY/WX TMP DP RH WIND PRES REMARKS
 
WALHALLA FAIR 63 63 100 NW5 29.89S  
GRAFTON AIRPOR CLOUDY 63 63 100 E6 29.89S  
VALLEY CITY AR N/A 64 64 100 CALM 29.86R FOG  
CANDO CLOUDY 64 64 100 N5 29.92S  
CAVALIER APRT CLOUDY 63 63 100 CALM 29.88S FOG  
GWINNER CLOUDY 66 64 94 CALM 29.84R  
ROLLA CLOUDY 61 61 100 NW6 29.93R  
***** THE ABOVE OBSERVATIONS ARE NON NWS ARE NOT QUALITY  
CONTROLLED AND MAY MIS-REPORT RAIN FOR SNOW...  

 
 
***** WEATHER ACROSS NORTHERN MINNESOTA *****  
 
CITY SKY/WX TMP DP RH WIND PRES REMARKS
 
FLAG ISLAND PTSUNNY 68 61 77 CALM 29.92S  
WARROAD FAIR 64 61 88 SE5 29.93S  
ROSEAU DRIZZLE 66 61 82 E5 29.92S  
HALLOCK DRIZZLE 64 63 94 E7 29.88S  
THF RVR FALLS CLOUDY 64 63 94 E6 29.89S  
BAUDETTE CLOUDY 63 58 83 SE6 29.93S  
WASKISH CLOUDY 63 57 82 E9 29.92S  
CROOKSTON CLOUDY 64 63 94 E5 29.87S  
STEPHEN NDAWN N/A 64 63 94 E7 N/A  
GREENBUSH NDAW N/A N/A N/A N/A E3 N/A  

 
***** WEATHER ACROSS CENTRAL AND WEST MINNESOTA *****  
 
CITY SKY/WX TMP DP RH WIND PRES REMARKS
 
FOSSTON N/A 63 63 100 SE6 29.88S  
BEMIDJI CLOUDY 62 59 88 E12 29.90S  
PARK RAPIDS CLOUDY 64 61 90 SE10 29.89S FOG  
ELBOW LAKE CLOUDY 65 65 99 E9 29.86S  
WADENA CLOUDY 63 63 100 SE9 29.88S  
DETROIT LAKES CLOUDY 63 61 94 SE8 29.88S FOG  
MOORHEAD CLOUDY 66 63 88 SE3 29.85R  
FERGUS FALLS CLOUDY 66 66 100 SE8 29.84S FOG  
MORRIS MN CLOUDY 66 66 100 SE8 29.84S FOG  
STAPLES CLOUDY 63 61 94 SE5 29.89S FOG  

 
***** WEATHER ELSEWHERE ACROSS MINNESOTA *****  
 
CITY SKY/WX TMP DP RH WIND PRES REMARKS
 
DULUTH FAIR 64 59 83 E13 29.99S  
INTRNTL FALLS CLOUDY 64 54 69 SE8 29.96F  
ELY FAIR 68 48 49 E8 30.00S  
CLOQUET FAIR 64 57 77 E9G16 29.97F  
WHEATON CLOUDY 66 63 88 SE8 29.85S  
BRAINERD CLOUDY 64 62 93 SE9 29.91F  
HIBBING FAIR 66 56 70 SE12 29.97S  
ALEXANDRIA CLOUDY 66 65 96 SE9 29.88F  
SAINT CLOUD CLOUDY 65 65 100 SE8 29.90F  
MINNEAPOLIS CLOUDY 67 63 87 SE13 29.90F  

 
 
***** WEATHER ACROSS SOUTH DAKOTA *****  
 
CITY SKY/WX TMP DP RH WIND PRES REMARKS
 
SIOUX FALLS LGT RAIN 68 67 96 E10 29.82F  
BROOKINGS HVY RAIN 66 64 94 S6 29.87R  
WATERTOWN LGT RAIN 66 66 100 CALM 29.85R FOG  
HURON LGT RAIN 67 66 97 E5 29.84S FOG  
SISSETON N/A 66 66 100 S6 29.84R  
ABERDEEN CLOUDY 67 66 97 NW8 29.84R  
MITCHELL LGT RAIN 67 66 97 NE6 29.85S FOG  
PIERRE LGT RAIN 64 61 90 N16 29.86F  
MOBRIDGE CLOUDY 65 60 84 N12 29.88S  
RAPID CITY CLOUDY 64 55 72 N17 30.01R  

 
 
***** SOME WEATHER IN NEARBY STATES *****  
 
CITY SKY/WX TMP DP RH WIND PRES REMARKS
 
GLASGOW MT FAIR 66 52 60 E6 29.93S  
GREAT FALLS MT FAIR 65 29 25 SW12 30.00S  
CHEYENNE WY FAIR 59 43 55 NW14 30.15R  
SCOTTSBLUFF NE FAIR 63 56 78 W8 30.04R  
OMAHA NE LGT RAIN 73 68 84 CALM 29.75F  
DES MOINES IA CLOUDY 76 71 85 SE8 29.84F  
DAVENPORT IA FAIR 76 68 76 SE10 29.95F  
CHICAGO IL FAIR 79 65 62 E8 29.99F  
EAU CLAIRE WI CLOUDY 69 60 73 SE10 29.96S  
LA CROSSE WI FAIR 75 60 59 SE9 29.94F  

 
 
***** SOME NATIONAL WEATHER *****  
 
CITY SKY/WX TMP DP RH WIND PRES REMARKS
 
LA GUARDIA NY FAIR 80 64 58 N8 29.96S  
RALEIGH NC FAIR 84 72 67 E8 30.04S  
ATLANTA GA FAIR 83 73 72 N7 30.11S  
NEW ORLEANS LA PTSUNNY 85 80 85 S6 30.06S HX 99  
OKLAHOMA CITY PTSUNNY 82 72 71 S15 29.88R  
ALBUQUERQUE NM PTSUNNY 69 40 34 S5 30.18R  
SALT LAKE CITY FAIR 70 43 37 SE9 30.08R  
LOS ANGELES CA CLOUDY 68 58 70 VRB5 29.98R  
BOISE ID FAIR 65 37 35 S6 30.02R  
SEATTLE WA FAIR 59 51 75 SE7 30.10S  

 
 
*** WEATHER ACROSS MANITOBA...SASKATCHEWAN AND ONTARIO ***  
***ONTARIO***  
 
CITY SKY/WX TMP DP RH WIND PRES REMARKS
 
GERALDTON PTSUNNY 63 52 67 W7 30.10S  
THUNDER BAY PTSUNNY 64 57 77 E8 30.04F  
SIOUX LOOKOUT PTSUNNY 66 52 59 SW7 30.00S  
TORONTO PTSUNNY 68 61 77 E8 30.10R  
BIG TROUT LK SUNNY 66 54 63 S3 29.97F  
PICKLE LAKE PTSUNNY 66 57 72 S7 30.00S  
DRYDEN CLOUDY 63 55 77 SW3 29.99S  
KENORA MOSUNNY 64 63 94 SE6 29.96S  

 
*** MANITOBA***  
 
CITY SKY/WX TMP DP RH WIND PRES REMARKS
 
BRANDON CLOUDY 63 61 94 NW6 29.91S  
DAUPHIN SUNNY 68 59 73 W10 29.88S  
ISLAND LAKE LGT RAIN 64 59 82 SW6 29.92R  
PILOT MOUND N/A 64 61 88 E3 N/A  
THE PAS PTSUNNY 63 55 77 S6 29.79S  
THOMPSON LGT RAIN 63 61 94 VRB2 29.81F SMOKE  
WINNIPEG PTSUNNY 64 61 88 E9 29.90F  
LYNN LAKE MOSUNNY 66 55 68 MISG 29.72S  
CHURCHILL SUNNY 66 55 68 SW5 29.82R  
GILLAM CLOUDY 68 57 68 VRB2 29.85F  

 
***SASKATCHEWAN***  
 
CITY SKY/WX TMP DP RH WIND PRES REMARKS
 
ESTEVAN SUNNY 64 57 77 VRB2 29.95S  
KINDERSLEY PTSUNNY 57 48 72 S6 29.93S  
LLOYDMINSTER PTSUNNY 59 48 67 W6 29.89R  
PRINCE ALBERT NOT AVBL  
REGINA MOSUNNY 61 48 63 NW8 29.96R  
YORKTON SUNNY 63 55 77 SW8 29.91R  
N. BATTLEFORD SUNNY 59 48 67 W6 29.92R  
LA RONGE NOT AVBL  
SASKATOON MOSUNNY 61 48 63 W8 29.91S  
SWIFT CURRENT MOSUNNY 64 48 55 VRB2 29.95S  

 
NOTE: THESE ARE AUTOMATED STATIONS WITH LIMITED QUALITY CONTROL  
"FAIR" INDICATES FEW OR NO CLOUDS BELOW 12,000 FEET WITH NO  
SIGNIFICANT WEATHER AND/OR S TO VISIBILITY
.  
SKY/WX - SKY CONDITION AND SIGNIFICANT WEATHER.  
TMP - AIR TEMPERATURE. DP - DEWPOINT TEMPERATURE.  
RH - RELATIVE HUMIDITY. PRES - PRESSURE.  
HX - HEAT INDEX. WCI - WIND CHILL INDEX.  
$  
 
 
CLICK HERE TO GO TO PREVIOUS BULLETINS.

The Nexlab ND Page
The Nexlab MN Page Main Text Page